Marathon, FL

8:28 PM EDT on August 25, 2016 (GMT -0400)
Florida Keys Marathon

Weather History for KMTH - November, 2012

Change the Weather History Date:

Sunday, November 25, 2012

  Actual Average Record
Temperature  
Mean Temperature 64 °F 75 °F  
Max Temperature 71 °F 79 °F 85 °F (2014)
Min Temperature 57 °F 70 °F 57 °F (2012)
Degree Days  
Heating Degree Days 1 0  
Month to date heating degree days 1 0  
Since 1 July heating degree days 1 0  
Cooling Degree Days 0 10  
Month to date cooling degree days 185 278  
Year to date cooling degree days 4943 4717  
Growing Degree Days 14 (Base 50)    
Moisture  
Dew Point 52 °F    
Average Humidity 65    
Maximum Humidity 90    
Minimum Humidity 40    
Precipitation  
Precipitation 0.00 in 0.07 in 0.43 in (2013)
Month to date precipitation 0.10 2.44  
Year to date precipitation 43.90 43.77  
Snow  
Snow 0.00 in - - ()
Month to date snowfall 0.0  
Since 1 July snowfall 0.0  
Since 1 September snowfall 0.0  
Snow Depth 0.00 in    
Sea Level Pressure  
Sea Level Pressure 30.10 in    
Wind  
Wind Speed 5 mph (North)    
Max Wind Speed 10 mph    
Max Gust Speed 15 mph    
Visibility 9 miles    
Events      
T = Trace of Precipitation, MM = Missing Value Source: NWS Daily Summary

Daily Weather History Graph

Daily Weather History Graph

Search for Another Location

Airport or City:

Trip Planner

Search our weather history database for the weather conditions in past years. The results will help you decide how hot, cold, wet, or windy it might be!

Date:

Astronomy

Nov. 25, 2012 Rise Set
Actual Time 6:47 AM EST 5:34 PM EST
Civil Twilight 6:23 AM EST 5:59 PM EST
Nautical Twilight 5:55 AM EST 6:27 PM EST
Astronomical Twilight 5:27 AM EST 6:54 PM EST
Moon 3:41 PM EST (11/25) 4:12 AM EST (11/25)
Length of Visible Light 11h 35m
Length of Day
10h 47m
Waxing Gibbous, 93% of the Moon is Illuminated
Nov 25
Waxing Gibbous
Nov 28
Full
Dec 6
Last Quarter
Dec 13
New
Dec 20
First Quarter

Hourly Weather History & Observations

Time (EST) Temp. Dew Point Humidity Pressure Visibility Wind Dir Wind Speed Gust Speed Precip Events Conditions
12:53 AM 61.0 °F 57.0 °F 87% 30.08 in 6.0 mi Calm Calm - N/A   Clear
1:53 AM 60.1 °F 55.0 °F 83% 30.07 in 7.0 mi Calm Calm - N/A   Clear
2:49 AM 60.8 °F 57.2 °F 88% 30.07 in 7.0 mi NNE 4.6 mph - N/A   Mostly Cloudy
2:53 AM 62.1 °F 57.9 °F 86% 30.07 in 7.0 mi NNE 8.1 mph - N/A   Mostly Cloudy
3:00 AM 64.4 °F 60.8 °F 88% 30.07 in 8.0 mi North 9.2 mph - N/A   Mostly Cloudy
3:30 AM 64.4 °F 59.0 °F 83% 30.07 in 9.0 mi NNE 8.1 mph - N/A   Scattered Clouds
3:53 AM 63.0 °F 55.9 °F 78% 30.08 in 10.0 mi NNE 9.2 mph - N/A   Clear
4:53 AM 62.1 °F 51.1 °F 67% 30.07 in 10.0 mi North 6.9 mph - N/A   Clear
5:53 AM 57.9 °F 48.9 °F 72% 30.08 in 10.0 mi North 5.8 mph - N/A   Clear
7:53 AM 63.0 °F 50.0 °F 63% 30.11 in 10.0 mi North 9.2 mph - N/A   Clear
8:53 AM 66.0 °F 48.9 °F 54% 30.13 in 10.0 mi NNW 4.6 mph - N/A   Clear
9:53 AM 66.9 °F 50.0 °F 54% 30.15 in 10.0 mi Variable 6.9 mph - N/A   Clear
10:53 AM 68.0 °F 50.0 °F 52% 30.15 in 10.0 mi Variable 5.8 mph - N/A   Clear
11:53 AM 70.0 °F 46.0 °F 42% 30.14 in 10.0 mi Variable 4.6 mph - N/A   Clear
12:53 PM 69.1 °F 48.0 °F 47% 30.11 in 10.0 mi NNW 5.8 mph - N/A   Clear
1:53 PM 69.1 °F 46.0 °F 44% 30.09 in 10.0 mi NW 6.9 mph - N/A   Clear
2:53 PM 69.1 °F 45.0 °F 42% 30.08 in 10.0 mi Variable 3.5 mph - N/A   Clear
3:53 PM 68.0 °F 46.0 °F 45% 30.08 in 10.0 mi Variable 4.6 mph - N/A   Clear
4:53 PM 66.9 °F 48.0 °F 51% 30.08 in 10.0 mi NW 3.5 mph - N/A   Clear
5:53 PM 64.0 °F 48.9 °F 58% 30.08 in 10.0 mi NNW 3.5 mph - N/A   Clear
6:53 PM 63.0 °F 50.0 °F 63% 30.10 in 10.0 mi NNW 3.5 mph - N/A   Clear
7:53 PM 62.1 °F 51.1 °F 67% 30.12 in 10.0 mi NNW 3.5 mph - N/A   Clear
8:53 PM 61.0 °F 52.0 °F 72% 30.13 in 10.0 mi Calm Calm - N/A   Clear
9:53 PM 61.0 °F 53.1 °F 75% 30.14 in 10.0 mi North 3.5 mph - N/A   Clear
10:53 PM 61.0 °F 54.0 °F 78% 30.13 in 10.0 mi North 3.5 mph - N/A   Clear
11:53 PM 63.0 °F 55.9 °F 78% 30.14 in 10.0 mi NNW 3.5 mph - N/A   Clear